Pipestone, MN

6:20 AM CST on February 23, 2017 (GMT -0600)
Pipestone Municipal

Weather History for KPQN - April, 2013

Change the Weather History Date:

Tuesday, April 23, 2013

  Actual Average Record
Temperature  
Mean Temperature 24 °F -  
Max Temperature 32 °F 58 °F 87 °F (2009)
Min Temperature 17 °F 37 °F 17 °F (2013)
Degree Days  
Heating Degree Days 40    
Moisture  
Dew Point 19 °F    
Average Humidity 78    
Maximum Humidity 93    
Minimum Humidity 60    
Precipitation  
Precipitation 0.02 in - - ()
Sea Level Pressure  
Sea Level Pressure 30.18 in    
Wind  
Wind Speed 11 mph (NNW)    
Max Wind Speed 17 mph    
Max Gust Speed 26 mph    
Visibility 10 miles    
Events Snow , Thunderstorm    
Averages and records for this station are not official NWS values.
T = Trace of Precipitation, MM = Missing Value Source: NWS Daily Summary

Daily Weather History Graph

Daily Weather History Graph

Search for Another Location

Airport or City:

Trip Planner

Search our weather history database for the weather conditions in past years. The results will help you decide how hot, cold, wet, or windy it might be!

Date:

Astronomy

Apr. 23, 2013 Rise Set
Actual Time 6:28 AM CDT 8:19 PM CDT
Civil Twilight 5:57 AM CDT 8:50 PM CDT
Nautical Twilight 5:20 AM CDT 9:27 PM CDT
Astronomical Twilight 4:39 AM CDT 10:08 PM CDT
Moon 6:12 PM CDT 5:01 AM CDT
Length of Visible Light 14h 52m
Length of Day
13h 50m
Waxing Gibbous, 94% of the Moon is Illuminated
Apr 23
Waxing Gibbous
Apr 25
Full
May 2
Last Quarter
May 9
New
May 17
First Quarter

Hourly Weather History & Observations

Time (CDT) Temp. Windchill Dew Point Humidity Pressure Visibility Wind Dir Wind Speed Gust Speed Precip Events Conditions
12:13 AM 26.6 °F 15.7 °F 21.2 °F 80% 30.24 in - North 12.7 mph 19.6 mph N/A   Unknown
12:33 AM 26.6 °F 16.2 °F 21.2 °F 80% 30.25 in - North 11.5 mph 17.3 mph N/A   Unknown
12:53 AM 26.6 °F 16.2 °F 21.2 °F 80% 30.24 in - North 11.5 mph 17.3 mph N/A   Overcast
1:13 AM 26.6 °F 16.8 °F 19.4 °F 74% 30.24 in - North 10.4 mph 17.3 mph N/A   Overcast
1:33 AM 24.8 °F 14.0 °F 19.4 °F 80% 30.24 in - North 11.5 mph 19.6 mph N/A   Scattered Clouds
1:53 AM 24.8 °F 14.0 °F 19.4 °F 80% 30.24 in - North 11.5 mph 17.3 mph N/A   Clear
2:13 AM 24.8 °F 16.1 °F 19.4 °F 80% 30.24 in - North 8.1 mph - N/A   Clear
2:33 AM 23.0 °F 12.4 °F 19.4 °F 86% 30.24 in - North 10.4 mph - N/A   Unknown
2:53 AM 23.0 °F 13.9 °F 17.6 °F 80% 30.23 in - North 8.1 mph - N/A   Clear
3:13 AM 21.2 °F 9.5 °F 17.6 °F 86% 30.22 in - North 11.5 mph - N/A   Unknown
3:33 AM 21.2 °F 8.3 °F 17.6 °F 86% 30.22 in - NNW 13.8 mph 18.4 mph N/A   Unknown
3:53 AM 21.2 °F 9.5 °F 17.6 °F 86% 30.21 in - NNW 11.5 mph - N/A   Unknown
4:13 AM 21.2 °F 8.9 °F 17.6 °F 86% 30.21 in - NNW 12.7 mph - N/A   Unknown
4:33 AM 19.4 °F 8.6 °F 17.6 °F 93% 30.22 in - NNW 9.2 mph - N/A   Unknown
4:53 AM 19.4 °F 7.2 °F 15.8 °F 86% 30.21 in - NNW 11.5 mph - N/A   Unknown
5:13 AM 19.4 °F 7.2 °F 15.8 °F 86% 30.22 in - NNW 11.5 mph - N/A   Unknown
5:33 AM 19.4 °F 7.2 °F 15.8 °F 86% 30.21 in - NNW 11.5 mph - N/A   Unknown
5:53 AM 19.4 °F 8.6 °F 15.8 °F 86% 30.21 in - NNW 9.2 mph - N/A   Unknown
6:13 AM 17.6 °F 5.7 °F 14.0 °F 86% 30.21 in 10.0 mi NNW 10.4 mph - N/A   Clear
6:33 AM 17.6 °F 5.7 °F 14.0 °F 86% 30.21 in 10.0 mi NNW 10.4 mph - N/A   Clear
6:53 AM 17.6 °F 5.7 °F 14.0 °F 86% 30.21 in 10.0 mi NNW 10.4 mph - N/A Snow Light Snow
7:13 AM 17.6 °F 5.7 °F 14.0 °F 86% 30.21 in 10.0 mi NNW 10.4 mph - N/A   Clear
7:33 AM 17.6 °F 5.7 °F 14.0 °F 86% 30.21 in 10.0 mi NNW 10.4 mph - N/A   Clear
7:53 AM 19.4 °F 8.6 °F 15.8 °F 86% 30.22 in 10.0 mi NNW 9.2 mph - N/A   Clear
8:13 AM 19.4 °F 8.6 °F 15.8 °F 86% 30.23 in 10.0 mi NNW 9.2 mph - N/A   Clear
8:33 AM 21.2 °F 12.6 °F 15.8 °F 80% 30.23 in 10.0 mi NNW 6.9 mph - N/A   Clear
8:53 AM 19.4 °F 6.6 °F 15.8 °F 86% 30.23 in 10.0 mi NNW 12.7 mph - N/A Thunderstorm Clear
9:13 AM 21.2 °F 8.3 °F 17.6 °F 86% 30.22 in 10.0 mi NNW 13.8 mph 18.4 mph N/A   Clear
9:33 AM 21.2 °F 7.8 °F 17.6 °F 86% 30.21 in 10.0 mi North 15.0 mph 18.4 mph N/A   Clear
9:53 AM 23.0 °F 12.4 °F 17.6 °F 80% 30.20 in 10.0 mi North 10.4 mph - N/A   Clear
10:13 AM 23.0 °F 12.4 °F 17.6 °F 80% 30.21 in 10.0 mi North 10.4 mph 15.0 mph N/A   Clear
10:33 AM 24.8 °F 13.4 °F 19.4 °F 80% 30.21 in 10.0 mi North 12.7 mph 18.4 mph N/A   Clear
10:53 AM 26.6 °F 15.2 °F 19.4 °F 74% 30.21 in 10.0 mi NNW 13.8 mph 18.4 mph N/A   Clear
11:13 AM 24.8 °F 11.9 °F 19.4 °F 80% 30.21 in 10.0 mi NNW 16.1 mph 19.6 mph N/A   Clear
11:33 AM 26.6 °F 15.7 °F 21.2 °F 80% 30.20 in 10.0 mi NNW 12.7 mph 18.4 mph N/A   Clear
11:53 AM 28.4 °F 17.0 °F 21.2 °F 74% 30.20 in 10.0 mi NNW 15.0 mph 19.6 mph N/A   Clear
12:13 PM 28.4 °F 17.5 °F 21.2 °F 74% 30.20 in 10.0 mi NNW 13.8 mph 19.6 mph 0.01 in   Clear
12:33 PM 28.4 °F 17.5 °F 21.2 °F 74% 30.19 in 10.0 mi NNW 13.8 mph 19.6 mph N/A   Clear
12:53 PM 28.4 °F 16.2 °F 19.4 °F 69% 30.18 in 10.0 mi North 17.3 mph 23.0 mph N/A   Clear
1:13 PM 28.4 °F 18.0 °F 17.6 °F 64% 30.18 in 10.0 mi North 12.7 mph 20.7 mph N/A   Clear
1:33 PM 30.2 °F 18.9 °F 19.4 °F 64% 30.17 in 10.0 mi NNW 16.1 mph 24.2 mph 0.01 in   Clear
1:53 PM 30.2 °F 19.3 °F 19.4 °F 64% 30.17 in 10.0 mi NNW 15.0 mph 24.2 mph N/A   Clear
2:13 PM 30.2 °F 18.9 °F 19.4 °F 64% 30.16 in 10.0 mi North 16.1 mph 24.2 mph N/A   Clear
2:33 PM 30.2 °F 19.3 °F 19.4 °F 64% 30.16 in 10.0 mi North 15.0 mph 24.2 mph N/A   Clear
2:53 PM 30.2 °F 19.3 °F 19.4 °F 64% 30.17 in 10.0 mi NW 15.0 mph 23.0 mph N/A   Clear
3:13 PM 30.2 °F 18.9 °F 19.4 °F 64% 30.16 in 10.0 mi NNW 16.1 mph 24.2 mph N/A   Clear
3:33 PM 32.0 °F 22.1 °F 19.4 °F 60% 30.15 in 10.0 mi NNW 13.8 mph 26.5 mph N/A   Clear
3:53 PM 32.0 °F 21.6 °F 19.4 °F 60% 30.15 in 10.0 mi NNW 15.0 mph 21.9 mph N/A   Clear
4:13 PM 32.0 °F 22.1 °F 19.4 °F 60% 30.14 in 10.0 mi NNW 13.8 mph 21.9 mph N/A   Clear
4:33 PM 32.0 °F 21.2 °F 19.4 °F 60% 30.14 in 10.0 mi NNW 16.1 mph 24.2 mph N/A   Clear
4:54 PM 32.0 °F 20.8 °F 19.4 °F 60% 30.13 in 10.0 mi NNW 17.3 mph 25.3 mph N/A   Clear
5:13 PM 32.0 °F 20.8 °F 19.4 °F 60% 30.13 in 10.0 mi NNW 17.3 mph 25.3 mph N/A   Clear
5:33 PM 32.0 °F 21.6 °F 19.4 °F 60% 30.13 in 10.0 mi NNW 15.0 mph 21.9 mph N/A   Clear
5:53 PM 32.0 °F 21.2 °F 19.4 °F 60% 30.12 in 10.0 mi NNW 16.1 mph 21.9 mph N/A   Clear
6:13 PM 32.0 °F 22.5 °F 19.4 °F 60% 30.12 in 10.0 mi NNW 12.7 mph - N/A   Clear
6:33 PM 32.0 °F 22.1 °F 21.2 °F 64% 30.12 in 10.0 mi NNW 13.8 mph - N/A   Clear
6:53 PM 32.0 °F 24.2 °F 21.2 °F 64% 30.12 in 10.0 mi NNW 9.2 mph - N/A   Clear
7:13 PM 30.2 °F 21.9 °F 21.2 °F 69% 30.12 in 10.0 mi NW 9.2 mph - N/A   Clear
7:33 PM 30.2 °F 22.6 °F 21.2 °F 69% 30.12 in 10.0 mi NW 8.1 mph - N/A   Clear
7:53 PM 28.4 °F 23.3 °F 21.2 °F 74% 30.12 in 10.0 mi West 4.6 mph - N/A   Clear
8:13 PM 24.8 °F 17.9 °F 21.2 °F 86% 30.12 in 10.0 mi WNW 5.8 mph - N/A   Clear
8:33 PM 24.8 °F 20.5 °F 19.4 °F 80% 30.12 in 10.0 mi West 3.5 mph - N/A   Clear
8:54 PM 23.0 °F 18.4 °F 19.4 °F 86% 30.12 in 10.0 mi West 3.5 mph - N/A   Clear
9:13 PM 23.0 °F 17.0 °F 19.4 °F 86% 30.12 in 10.0 mi West 4.6 mph - N/A   Clear
9:33 PM 21.2 °F 14.9 °F 19.4 °F 93% 30.12 in 10.0 mi West 4.6 mph - N/A   Clear
9:53 PM 21.2 °F 14.9 °F 19.4 °F 93% 30.12 in 10.0 mi West 4.6 mph - N/A   Clear
10:13 PM 23.0 °F 17.0 °F 19.4 °F 86% 30.12 in 10.0 mi West 4.6 mph - N/A   Clear
10:33 PM 21.2 °F 13.6 °F 19.4 °F 93% 30.11 in 10.0 mi West 5.8 mph - N/A   Clear
10:53 PM 23.0 °F 15.8 °F 19.4 °F 86% 30.11 in 10.0 mi West 5.8 mph - N/A   Clear
11:13 PM 19.4 °F 12.8 °F 17.6 °F 93% 30.10 in 10.0 mi WSW 4.6 mph - N/A   Clear
11:33 PM 21.2 °F 14.9 °F 19.4 °F 93% 30.10 in 10.0 mi WSW 4.6 mph - N/A   Clear
11:53 PM 19.4 °F 11.5 °F 17.6 °F 93% 30.10 in 10.0 mi WSW 5.8 mph - N/A   Clear